Location: DARK SKY Beskydy - Park tmavé oblohy, www.darkskybeskydy.cz
(49.4926°N, 18.5016°E)
Time: 08:44:01
(UTC+01:00)

Tiros 1 - Visible Passes

Search period start: 25 February 2024 00:00
Search period end: 06 March 2024 00:00
Orbit: 625 x 658 km, 48.4° (Epoch: 24 February)

Date Brightness Start Highest point End Pass type
(mag) Time Alt. Az. Time Alt. Az. Time Alt. Az.
26 Feb 9.7 20:12:16 10° SSW 20:12:26 11° SSW 20:12:26 11° SSW visible
27 Feb 8.9 18:56:18 10° S 18:58:48 16° SE 18:58:48 16° SE visible
27 Feb 9.7 20:35:53 10° SW 20:36:24 13° SW 20:36:24 13° SW visible
28 Feb 8.3 19:18:59 10° SSW 19:22:39 27° SSE 19:22:39 27° SSE visible
28 Feb 9.9 20:59:54 10° WSW 21:00:14 12° WSW 21:00:14 12° WSW visible
29 Feb 9.1 18:03:18 10° SSE 18:05:46 14° SE 18:08:15 10° ESE visible
29 Feb 7.8 19:42:30 10° SW 19:46:23 41° S 19:46:23 41° S visible
01 Mar 8.4 18:25:43 10° SSW 18:29:35 25° SE 18:32:25 15° E visible
01 Mar 7.8 20:06:27 10° WSW 20:09:59 46° SW 20:09:59 46° SW visible
02 Mar 7.8 18:49:07 10° SW 18:53:34 40° SSE 18:55:56 24° E visible
02 Mar 8.4 20:30:37 10° WSW 20:33:30 36° WSW 20:33:30 36° WSW visible
03 Mar 7.3 19:12:59 10° WSW 19:17:41 59° SSE 19:19:22 37° E visible
03 Mar 9.1 20:54:53 10° W 20:56:56 25° W 20:56:56 25° W visible
04 Mar 7.1 19:37:07 10° WSW 19:41:53 75° S 19:42:44 58° ESE visible
04 Mar 9.7 21:19:10 10° W 21:20:18 17° W 21:20:18 17° W visible
05 Mar 7.5 18:19:32 10° WSW 18:24:11 56° SSE 18:28:30 12° E visible
05 Mar 7.1 20:01:23 10° W 20:06:03 79° SSW 20:06:03 79° SSW visible
05 Mar 10.1 21:43:27 10° W 21:43:37 11° W 21:43:37 11° W visible
